FW2818 Weather Reports


Display with metric or nautical units.
time (UTC)temp
F
wind
direction
speed
MPH
gust
MPH
rain 1hr
in
rain 24hr
in
rain mn
in
humidity
%
barometer
mb
20260503204012 65 226 3.0 14.0 0.00 0.00 0.00 58 1011.0
20260503203507 65 248 11.0 14.0 0.00 0.00 0.00 59 1010.9
20260503203006 64 168 7.0 14.0 0.00 0.00 0.00 60 1010.9
20260503202507 64 196 3.0 17.0 0.00 0.00 0.00 61 1010.9
20260503202006 64 258 8.0 17.0 0.00 0.00 0.00 59 1010.9
20260503201510 65 219 6.0 16.0 0.00 0.00 0.00 60 1011.0
20260503200506 64 360 4.0 14.0 0.00 0.00 0.00 61 1011.1
20260503200005 64 360 9.0 14.0 0.00 0.00 0.00 61 1011.1
20260503195005 63 233 4.0 14.0 0.00 0.00 0.00 63 1011.3
20260503194506 62 360 5.0 14.0 0.00 0.00 0.00 63 1011.3
20260503194005 62 360 6.0 16.0 0.00 0.00 0.00 64 1011.2
20260503193504 62 311 10.0 16.0 0.00 0.00 0.00 64 1011.3
20260503193006 62 187 12.0 16.0 0.00 0.00 0.00 64 1011.2
20260503191504 63 215 14.0 16.0 0.00 0.00 0.00 62 1011.5
20260503191003 63 360 6.0 14.0 0.00 0.00 0.00 62 1011.5
20260503190504 62 168 6.0 12.0 0.00 0.00 0.00 64 1011.4
20260503185504 62 193 7.0 16.0 0.00 0.00 0.00 66 1011.5
20260503185003 61 192 7.0 16.0 0.00 0.00 0.00 66 1011.5
20260503184504 61 207 11.0 14.0 0.00 0.00 0.00 68 1011.5
20260503184003 60 152 4.0 14.0 0.00 0.00 0.00 71 1011.5
20260503183503 60 161 5.0 13.0 0.00 0.00 0.00 71 1011.5
20260503183003 60 360 6.0 13.0 0.00 0.00 0.00 72 1011.6
20260503182005 60 239 11.0 19.0 0.00 0.00 0.00 72 1011.6
20260503181504 60 218 3.0 19.0 0.00 0.00 0.00 71 1011.5
20260503181002 60 188 11.0 14.0 0.00 0.00 0.00 72 1011.5
20260503180502 59 193 7.0 14.0 0.00 0.00 0.00 73 1011.4
20260503180005 59 237 3.0 14.0 0.00 0.00 0.00 73 1011.5
20260503175502 59 206 9.0 13.0 0.00 0.00 0.00 73 1011.5
20260503175002 59 360 8.0 14.0 0.00 0.00 0.00 73 1011.4
20260503174501 59 175 11.0 14.0 0.00 0.00 0.00 73 1011.4
20260503174001 59 189 4.0 14.0 0.00 0.00 0.00 73 1011.3
20260503173502 58 207 2.0 14.0 0.00 0.00 0.00 74 1011.3
20260503173001 58 194 9.0 15.0 0.00 0.00 0.00 74 1011.2
20260503172501 59 196 5.0 15.0 0.00 0.00 0.00 73 1011.2
20260503172001 59 148 5.0 16.0 0.00 0.00 0.00 73 1011.2
20260503171501 59 193 7.0 16.0 0.00 0.00 0.00 73 1011.2
20260503171000 59 150 10.0 13.0 0.00 0.00 0.00 73 1011.2
20260503170500 59 173 10.0 15.0 0.00 0.00 0.00 73 1011.1
20260503150957 55 184 4.0 12.0 0.00 0.00 0.00 78 1010.8
20260503150457 55 220 9.0 12.0 0.00 0.00 0.00 79 1010.8
20260503130954 54 196 5.0 11.0 0.00 0.00 0.00 79 1009.4
20260503110450 54 221 6.0 10.0 0.00 0.00 0.00 80 1009.4
20260503090446 54 238 9.0 15.0 0.00 0.00 0.00 80 1009.7
20260503081445 54 200 9.0 12.0 0.00 0.00 0.00 81 1009.8
20260503080945 54 225 3.0 9.0 0.00 0.00 0.00 81 1009.9
20260503080446 54 214 7.0 10.0 0.00 0.00 0.00 81 1009.9
20260503072513 55 242 4.0 8.0 0.00 0.00 0.00 81 1010.1
20260503072017 55 177 2.0 10.0 0.00 0.00 0.00 81 1010.1
20260503071013 55 178 7.0 12.0 0.00 0.00 0.00 81 1010.1
20260503070514 55 360 6.0 11.0 0.00 0.00 0.00 81 1010.2
20260503055011 54 360 5.0 12.0 0.00 0.00 0.00 80 1010.6
20260503054011 54 213 4.0 11.0 0.00 0.00 0.00 80 1010.6
20260503052511 55 186 6.0 11.0 0.00 0.00 0.00 79 1010.7
20260503052010 55 200 5.0 12.0 0.00 0.00 0.00 79 1010.7
20260503051510 55 167 11.0 12.0 0.00 0.00 0.00 79 1010.8
20260503051009 55 176 4.0 12.0 0.00 0.00 0.00 79 1010.7
20260503050511 55 232 3.0 10.0 0.00 0.00 0.00 79 1010.7
20260503044510 55 360 5.0 12.0 0.00 0.00 0.00 79 1010.5
20260503044008 55 174 5.0 12.0 0.00 0.00 0.00 80 1010.4
20260503043508 55 158 6.0 9.0 0.00 0.00 0.00 80 1010.5
20260503043010 55 198 3.0 12.0 0.00 0.00 0.00 80 1010.3
20260503042508 55 206 6.0 12.0 0.00 0.00 0.00 80 1010.3
20260503042008 55 227 3.0 9.0 0.00 0.00 0.00 80 1010.3
20260503041509 55 184 2.0 9.0 0.00 0.00 0.00 80 1010.3
20260503041008 55 263 4.0 9.0 0.00 0.00 0.00 80 1010.3
20260503035507 55 242 4.0 9.0 0.00 0.00 0.00 79 1010.2
20260503035008 55 184 5.0 11.0 0.00 0.00 0.00 79 1010.1
20260503034508 55 185 3.0 11.0 0.00 0.00 0.00 79 1010.1
20260503033007 55 178 2.0 8.0 0.00 0.00 0.00 79 1009.9
20260503032506 55 237 4.0 13.0 0.00 0.00 0.00 79 1009.8
20260503032006 55 199 4.0 13.0 0.00 0.00 0.00 79 1009.8
20260503031506 55 229 9.0 13.0 0.00 0.00 0.00 79 1009.7
20260503031006 56 232 10.0 10.0 0.00 0.00 0.00 78 1009.6
20260503030006 56 201 6.0 14.0 0.00 0.00 0.00 78 1009.5
20260503025506 56 240 8.0 14.0 0.00 0.00 0.00 77 1009.4
20260503025008 56 275 2.0 11.0 0.00 0.00 0.00 76 1009.5
20260503024005 56 184 4.0 12.0 0.00 0.00 0.00 76 1009.4
20260503023506 56 209 4.0 14.0 0.00 0.00 0.00 75 1009.4
20260503023005 56 201 4.0 14.0 0.00 0.00 0.00 75 1009.4
20260503022005 57 238 10.0 15.0 0.00 0.00 0.00 73 1009.4
20260503021506 57 206 6.0 16.0 0.00 0.00 0.00 73 1009.4
20260503021005 57 234 6.0 16.0 0.00 0.00 0.00 72 1009.4
20260503020505 58 171 8.0 16.0 0.00 0.00 0.00 72 1009.3
20260503020004 58 236 16.0 16.0 0.00 0.00 0.00 71 1009.3
20260503015504 58 238 9.0 16.0 0.00 0.00 0.00 71 1009.3
20260503015006 58 192 6.0 16.0 0.00 0.00 0.00 71 1009.3
20260503014004 59 184 6.0 16.0 0.00 0.00 0.00 71 1009.3
20260503013505 59 244 8.0 16.0 0.00 0.00 0.00 70 1009.3
20260503013004 59 254 9.0 15.0 0.00 0.00 0.00 70 1009.4
20260503012504 59 209 7.0 15.0 0.00 0.00 0.00 70 1009.3
20260503012003 60 235 9.0 14.0 0.00 0.00 0.00 70 1009.4
20260503011504 60 236 7.0 14.0 0.00 0.00 0.00 69 1009.3
20260503011003 60 246 11.0 15.0 0.00 0.00 0.00 69 1009.3
20260503010503 60 261 11.0 15.0 0.00 0.00 0.00 69 1009.3
20260503010002 60 222 4.0 16.0 0.00 0.00 0.00 69 1009.3
20260503005503 61 259 13.0 16.0 0.00 0.00 0.00 69 1009.3
20260503004502 61 234 6.0 17.0 0.00 0.00 0.00 67 1009.4
20260503004002 61 212 9.0 16.0 0.00 0.00 0.00 67 1009.3
20260503003502 62 252 7.0 16.0 0.00 0.00 0.00 66 1009.3
20260503003002 62 227 9.0 15.0 0.00 0.00 0.00 66 1009.3
20260503002502 62 213 8.0 14.0 0.00 0.00 0.00 66 1009.3
20260503002001 63 232 6.0 17.0 0.00 0.00 0.00 65 1009.4
20260503001502 63 200 8.0 17.0 0.00 0.00 0.00 64 1009.4
20260503001001 63 360 3.0 15.0 0.00 0.00 0.00 64 1009.4
20260503000501 63 200 3.0 15.0 0.00 0.00 0.00 64 1009.4
20260502235500 63 227 6.0 16.0 0.00 0.00 0.00 64 1009.5
20260502235000 64 289 7.0 15.0 0.00 0.00 0.00 64 1009.6
20260502234000 64 181 4.0 16.0 0.00 0.00 0.00 64 1009.6
20260502233501 64 200 8.0 16.0 0.00 0.00 0.00 63 1009.7
20260502233000 64 230 4.0 15.0 0.00 0.00 0.00 64 1009.8
20260502232500 64 200 9.0 15.0 0.00 0.00 0.00 64 1009.8
20260502231959 64 167 8.0 17.0 0.00 0.00 0.00 63 1009.7
20260502231459 64 219 7.0 17.0 0.00 0.00 0.00 63 1009.8
20260502230959 64 234 10.0 19.0 0.00 0.00 0.00 62 1009.9
20260502230459 64 219 4.0 19.0 0.00 0.00 0.00 62 1010.0
20260502225959 65 202 9.0 16.0 0.00 0.00 0.00 62 1010.1
20260502225459 65 186 9.0 15.0 0.00 0.00 0.00 62 1010.1
20260502224959 65 172 9.0 16.0 0.00 0.00 0.00 61 1010.2
20260502224458 65 180 7.0 21.0 0.00 0.00 0.00 62 1010.3
20260502223958 64 178 10.0 21.0 0.00 0.00 0.00 62 1010.3
20260502223500 64 218 8.0 19.0 0.00 0.00 0.00 62 1010.3
20260502222958 64 219 12.0 22.0 0.00 0.00 0.00 63 1010.4
20260502222458 64 209 13.0 22.0 0.00 0.00 0.00 63 1010.4
20260502221459 64 263 13.0 17.0 0.00 0.00 0.00 63 1010.5
20260502220958 64 259 10.0 16.0 0.00 0.00 0.00 64 1010.5
20260502220458 64 263 9.0 16.0 0.00 0.00 0.00 63 1010.6
20260502215957 65 273 7.0 16.0 0.00 0.00 0.00 63 1010.8
20260502215457 65 281 6.0 17.0 0.00 0.00 0.00 64 1010.7
20260502214959 65 223 11.0 17.0 0.00 0.00 0.00 64 1010.8
20260502214457 64 213 11.0 17.0 0.00 0.00 0.00 64 1010.7
20260502213957 64 256 12.0 20.0 0.00 0.00 0.00 64 1010.8
20260502213457 64 195 5.0 20.0 0.00 0.00 0.00 65 1010.8
20260502212957 64 208 7.0 19.0 0.00 0.00 0.00 65 1010.8
20260502212456 64 304 5.0 18.0 0.00 0.00 0.00 65 1010.8
20260502211957 64 236 7.0 17.0 0.00 0.00 0.00 65 1011.0
20260502211457 64 233 12.0 15.0 0.00 0.00 0.00 65 1011.0
20260502210956 64 270 7.0 16.0 0.00 0.00 0.00 66 1011.1
20260502205955 64 202 7.0 16.0 0.00 0.00 0.00 66 1011.3
20260502205457 64 253 10.0 15.0 0.00 0.00 0.00 66 1011.3
20260502204955 64 181 8.0 15.0 0.00 0.00 0.00 67 1011.4